Location: Peebles
(55.6412°N, 3.1714°W)
Time: 11:06:27
(UTC+01:00)

NOAA 16 DEB - Pass Details

Date: 09 July 2022
Orbit: 830 x 847 km, 98.8° (Epoch: 13 August)

Event Time Altitude Azimuth Distance (km) Brightness Sun altitude
Exits shadow 00:07:37 - 208° (SSW) 3,087 ? -10.6°
Reaches altitude 10° 00:09:40 10° 220° (SW) 2,440 ? -10.6°
Maximum altitude 00:13:50 23° 271° (W) 1,732 ? -10.8°
Drops below altitude 10° 00:18:04 10° 322° (NW) 2,461 ? -10.9°
Sets 00:20:59 0° 337° (NNW) 3,403 ? -11.0°
